[[{"header":{"parameterUnit":"m.s-1","parameterCategory":1,"la1":30.2991,"la2":30.254,"lo1":-89.0895,"lo2":-89.0444,"dy":0.0017,"dx":0.0017,"nx":28,"ny":28,"refTime":"2024-06-04T21:00:00:Z","depth":0,"parameterNumber":2,"parameterNumberName":"U-component_of_WINDS"},"data":[0,0,0,0,0,0,0,0,0,0,0,0,0,0,0,0,0,0,0,0,0,0,0,0,0,0,0,0,0,0,0,0,0,0,0,0,0,0,0,0,0,0,0,0,0,0,0,0,0,0,0,0,0,0,0,0,0,0,-0.8501,-0.8503,0,-0.8661,-0.8663,-0.8664,-0.8746,-0.8746,-0.8746,-0.8746,-0.8905,-0.8909,-0.8913,0,0,0,0,0,0,0,0,0,0,0,0,0,-0.8262,-0.8266,-0.8501,-0.8503,-0.8505,-0.8661,-0.8663,-0.8665,-0.8746,-0.8746,-0.8746,-0.8746,-0.8904,-0.8909,-0.8914,0,0,0,0,0,0,0,0,0,0,0,0,0,-0.8388,-0.8267,-0.8501,-0.8564,-0.8572,-0.866,-0.8663,-0.8665,-0.8746,-0.8746,-0.8746,-0.8746,-0.8902,-0.8908,-0.8914,-0.8951,0,0,-0.8933,-0.8936,0,0,0,0,0,0,0,0,-0.8381,-0.8396,-0.8553,-0.856,-0.8568,-0.8684,-0.8637,-0.8761,-0.8746,-0.8679,-0.8746,-0.8746,-0.8831,-0.8843,-0.8873,-0.8958,-0.8965,-0.8934,-0.8938,-0.894,-0.8942,0,0,0,0,0,0,0,-0.8372,-0.839,-0.8564,-0.8555,-0.8564,-0.8583,-0.8601,-0.8661,-0.8752,-0.8685,-0.8692,-0.871,-0.8835,-0.8866,-0.8877,-0.8967,-0.8934,-0.8939,-0.8943,-0.8946,-0.909,-0.909,0,0,0,0,0,0,-0.8353,-0.8382,-0.8559,-0.8569,-0.8473,-0.8588,-0.8608,-0.8646,-0.8752,-0.8768,-0.8709,-0.8713,-0.8856,-0.887,-0.8883,-0.8933,-0.894,-0.8946,-0.895,-0.909,-0.909,-0.909,0,0,0,0,0,0,-0.8348,-0.8368,-0.8553,-0.8477,-0.8502,-0.8592,-0.8634,-0.8649,-0.8681,-0.877,-0.8787,-0.8725,-0.8856,-0.8874,-0.8933,-0.8939,-0.8949,-0.8955,-0.909,-0.909,-0.909,-0.9031,0,0,0,0,0,0,-0.8341,-0.8366,-0.8382,-0.8477,-0.8506,-0.8602,-0.8635,-0.8653,-0.8692,-0.8698,-0.8789,-0.8804,-0.8858,-0.8924,-0.894,-0.8948,-0.896,-0.909,-0.909,-0.909,-0.9033,-0.9029,-0.9026,0,0,0,0,0,-0.8332,-0.8358,-0.8382,-0.8403,-0.8528,-0.8602,-0.8618,-0.8681,-0.8692,-0.8708,-0.8765,-0.8801,-0.8936,-0.8929,-0.8948,-0.8958,-0.9089,-0.909,-0.909,-0.9035,-0.903,-0.9026,0,0,0,0,0,0,-0.8259,-0.8372,-0.84,-0.8458,-0.852,-0.8615,-0.8638,-0.8674,-0.8733,-0.8736,-0.8809,-0.8829,-0.8882,-0.8926,-0.8916,-0.8998,-0.9016,-0.902,-0.8968,-0.8964,-0.8961,-0.8949,-0.8965,0,0,0,0,0,-0.825,-0.8302,-0.8397,-0.8439,-0.8469,-0.8547,-0.8582,-0.8625,-0.8691,-0.8718,-0.878,-0.8842,-0.8898,-0.8933,-0.899,-0.904,-0.906,-0.9056,-0.9052,-0.9049,-0.9052,-0.9081,-0.908,-0.9091,-0.9091,-0.9091,0,0,-0.8232,-0.8299,-0.8328,-0.8426,-0.8479,-0.853,-0.8569,-0.8621,-0.866,-0.8725,-0.8786,-0.8833,-0.8907,-0.8961,-0.8988,-0.9,-0.9053,-0.9049,-0.9046,-0.9051,-0.9081,-0.908,-0.9079,-0.9091,-0.9091,-0.9091,0,0,-0.8224,-0.8281,-0.8322,-0.8375,-0.8455,-0.8507,-0.8517,-0.8607,-0.8642,-0.8704,-0.8754,-0.88,-0.8895,-0.8946,-0.8984,-0.8995,-0.903,-0.9011,-0.8993,-0.9021,-0.902,-0.902,-0.9024,-0.9024,-0.9014,-0.9013,-0.9013,0,-0.819,-0.8271,-0.8338,-0.8388,-0.8429,-0.8493,-0.8534,-0.8581,-0.8675,-0.8702,-0.8713,-0.8835,-0.8889,-0.8956,-0.8959,-0.8988,-0.9001,-0.9002,-0.9015,-0.9015,-0.9016,-0.9021,-0.9022,-0.9011,-0.9011,-0.9011,-0.9012,0,-0.8225,-0.828,-0.8303,-0.8394,-0.8438,-0.8483,-0.8556,-0.8593,-0.8631,-0.8681,-0.8743,-0.8811,-0.8882,-0.8901,-0.8939,-0.8974,-0.8978,-0.9001,-0.9021,-0.9011,-0.9017,-0.9019,-0.9007,-0.9008,-0.9008,-0.9009,0,0,-0.8177,-0.8305,-0.8312,-0.8354,-0.8447,-0.849,-0.8537,-0.8609,-0.8638,-0.87,-0.8742,-0.8821,-0.8843,-0.8887,-0.893,-0.8955,-0.8959,-0.8975,-0.8978,-0.897,-0.9001,-0.8983,-0.8984,-0.8983,-0.8983,-0.8984,-0.8995,0,-0.8183,-0.8273,-0.8334,-0.8399,-0.845,-0.8511,-0.8552,-0.8613,-0.8661,-0.871,-0.8763,-0.8818,-0.8843,-0.887,-0.8896,-0.8953,-0.8966,-0.8953,-0.9021,-0.9023,-0.9001,-0.8987,-0.8969,-0.8976,-0.8998,-0.8998,-0.8998,0,-0.8201,-0.8263,-0.8334,-0.8421,-0.8445,-0.8481,-0.8551,-0.8598,-0.8668,-0.8701,-0.8749,-0.8794,-0.8846,-0.886,-0.8932,-0.8921,-0.8953,-0.8985,-0.8986,-0.8995,-0.901,-0.8996,-0.898,-0.8981,-0.9002,-0.9002,-0.9002,0,-0.8159,-0.826,-0.8315,-0.8349,-0.8452,-0.8476,-0.852,-0.859,-0.8629,-0.869,-0.8716,-0.8781,-0.8817,-0.8866,-0.8927,-0.8932,-0.8992,-0.9011,-0.902,-0.9019,-0.903,-0.9029,-0.9019,-0.905,-0.905,-0.905,-0.905,0,-0.8159,-0.8199,-0.8297,-0.8331,-0.8378,-0.8448,-0.8492,-0.8541,-0.8603,-0.8647,-0.8702,-0.8741,-0.882,-0.8868,-0.8916,-0.8968,-0.8984,-0.9011,-0.9024,-0.9007,-0.9003,-0.9028,-0.9029,-0.905,-0.905,-0.905,-0.905,0,-0.8119,-0.8187,-0.8251,-0.8344,-0.8368,-0.8398,-0.8478,-0.8512,-0.8563,-0.8618,-0.8634,-0.8714,-0.8774,-0.884,-0.8922,-0.8954,-0.9003,-0.9021,-0.898,-0.8987,-0.8992,-0.8991,-0.8999,-0.9003,-0.903,-0.903,-0.9029,0,-0.8115,-0.8148,-0.8244,-0.8278,-0.8321,-0.8375,-0.8415,-0.8484,-0.8524,-0.8606,-0.863,-0.8695,-0.875,-0.8843,-0.8908,-0.8971,-0.899,-0.8988,-0.9,-0.8982,-0.899,-0.8987,-0.8991,-0.8985,-0.8984,-0.8984,-0.8983,0,-0.8099,-0.8131,-0.8188,-0.8256,-0.8302,-0.8359,-0.8418,-0.8442,-0.8523,-0.8564,-0.8627,-0.867,-0.8754,-0.8817,-0.8888,-0.8932,-0.8971,-0.8979,-0.8985,-0.8968,-0.8943,-0.8956,-0.8971,-0.8979,-0.8979,-0.898,-0.898,-0.898,-0.8078,-0.811,-0.8183,-0.8244,-0.8295,-0.8349,-0.8386,-0.8442,-0.8496,-0.8571,-0.8608,-0.8671,-0.8739,-0.8839,-0.8882,-0.8931,-0.8943,-0.8951,-0.8953,-0.8953,-0.8949,-0.8935,-0.8944,-0.8944,-0.8944,-0.8945,-0.8945,0,-0.8065,-0.8115,-0.8171,-0.8251,-0.8299,-0.8333,-0.8399,-0.8436,-0.8491,-0.8552,-0.8606,-0.8678,-0.874,-0.8809,-0.8875,-0.8901,-0.892,-0.8916,-0.8915,-0.8924,-0.8934,-0.8923,-0.8899,-0.8899,-0.8899,-0.8899,-0.8899,-0.8899,-0.8064,-0.812,-0.816,-0.8242,-0.8292,-0.8355,-0.839,-0.8439,-0.8488,-0.8567,-0.8619,-0.8664,-0.8728,-0.8799,-0.8857,-0.8876,-0.8897,-0.8888,-0.8911,-0.892,-0.8923,-0.8927,-0.8917,-0.8892,-0.8892,-0.8897,-0.8897,-0.8897]},{"header":{"parameterUnit":"m.s-1","parameterCategory":1,"la1":30.2991,"la2":30.254,"lo1":-89.0895,"lo2":-89.0444,"dy":0.0017,"dx":0.0017,"nx":28,"ny":28,"refTime":"2024-06-04T21:00:00:Z","depth":0,"parameterNumber":3,"parameterNumberName":"V-component_of_WINDS"},"data":[0,0,0,0,0,0,0,0,0,0,0,0,0,0,0,0,0,0,0,0,0,0,0,0,0,0,0,0,0,0,0,0,0,0,0,0,0,0,0,0,0,0,0,0,0,0,0,0,0,0,0,0,0,0,0,0,0,0,4.92,4.9201,0,4.9312,4.9313,4.9315,4.935,4.9349,4.9349,4.9348,4.946,4.9464,4.9467,0,0,0,0,0,0,0,0,0,0,0,0,0,4.9015,4.9019,4.92,4.9201,4.9203,4.9312,4.9314,4.9315,4.935,4.9349,4.9348,4.9348,4.9459,4.9463,4.9468,0,0,0,0,0,0,0,0,0,0,0,0,0,4.9108,4.902,4.9199,4.9233,4.9237,4.9312,4.9314,4.9315,4.935,4.9349,4.9348,4.9347,4.9458,4.9463,4.9468,4.9517,0,0,4.9484,4.9486,0,0,0,0,0,0,0,0,4.9103,4.9115,4.9227,4.9231,4.9236,4.9316,4.929,4.9383,4.935,4.9307,4.9348,4.9347,4.9413,4.9422,4.9445,4.9522,4.9527,4.9485,4.9488,4.949,4.9492,0,0,0,0,0,0,0,4.9096,4.911,4.9244,4.9228,4.9234,4.9243,4.9255,4.9308,4.9363,4.9311,4.9313,4.9326,4.9415,4.9439,4.9447,4.9528,4.9485,4.9489,4.9492,4.9494,4.9654,4.9655,0,0,0,0,0,0,4.9084,4.9105,4.9241,4.9247,4.9166,4.9247,4.926,4.9291,4.9363,4.9373,4.9327,4.9328,4.9431,4.9441,4.9451,4.9515,4.949,4.9495,4.9498,4.9653,4.9654,4.9656,0,0,0,0,0,0,4.908,4.9096,4.9236,4.9177,4.9196,4.9251,4.9285,4.9294,4.9318,4.9375,4.9385,4.9342,4.9431,4.9444,4.9501,4.9519,4.9497,4.9502,4.9652,4.9653,4.9655,4.9641,0,0,0,0,0,0,4.9075,4.9094,4.9113,4.9177,4.9199,4.9284,4.9286,4.9296,4.9327,4.9329,4.9391,4.9401,4.9431,4.9493,4.9506,4.9526,4.9506,4.965,4.9652,4.9654,4.964,4.9642,4.9644,0,0,0,0,0,4.9068,4.9104,4.9114,4.913,4.9223,4.9285,4.9297,4.9332,4.9328,4.9348,4.9385,4.9399,4.9515,4.9499,4.9514,4.9535,4.9649,4.9652,4.9654,4.9639,4.9642,4.9644,0,0,0,0,0,0,4.9039,4.9112,4.9125,4.9182,4.9227,4.929,4.9316,4.9333,4.9379,4.9378,4.9419,4.9433,4.9487,4.9517,4.9497,4.9588,4.9583,4.9588,4.9566,4.9569,4.9571,4.9563,4.9511,0,0,0,0,0,4.9039,4.9083,4.9145,4.9189,4.9212,4.926,4.9288,4.9311,4.9359,4.9378,4.9419,4.9465,4.9512,4.9542,4.9588,4.9645,4.966,4.9667,4.9669,4.967,4.9675,4.9709,4.9714,4.9664,4.9664,4.9664,0,0,4.904,4.9086,4.9111,4.9185,4.9222,4.9268,4.9276,4.9322,4.9357,4.9385,4.9442,4.9474,4.9528,4.9585,4.9613,4.9612,4.9692,4.9673,4.9674,4.9678,4.9712,4.9717,4.9721,4.9665,4.9665,4.9665,0,0,4.9065,4.9103,4.9146,4.9184,4.9242,4.9274,4.9284,4.9346,4.9369,4.9428,4.9451,4.9492,4.9571,4.961,4.9639,4.9682,4.9697,4.9696,4.9705,4.9739,4.9743,4.9746,4.9763,4.9769,4.97,4.97,4.97,0,4.9058,4.9128,4.9165,4.9212,4.9245,4.9275,4.9319,4.9354,4.9423,4.9445,4.9444,4.9547,4.9584,4.9653,4.9664,4.9686,4.97,4.9689,4.9739,4.9743,4.9747,4.9764,4.977,4.97,4.97,4.97,4.97,0,4.9118,4.9166,4.9193,4.9262,4.9298,4.9343,4.9388,4.942,4.9441,4.9473,4.9534,4.9581,4.9638,4.9656,4.9676,4.9728,4.9726,4.9731,4.9727,4.9751,4.9768,4.9774,4.9699,4.9699,4.97,4.97,0,0,4.9126,4.9217,4.9226,4.9259,4.9326,4.9364,4.9411,4.9469,4.9497,4.9544,4.9586,4.9654,4.966,4.9694,4.9719,4.9748,4.9782,4.975,4.9752,4.9755,4.9844,4.9841,4.9848,4.9792,4.9793,4.9794,4.9841,0,4.916,4.9247,4.9284,4.9353,4.94,4.943,4.9471,4.9517,4.955,4.9594,4.9629,4.9678,4.9681,4.9702,4.9732,4.9771,4.98,4.9768,4.9831,4.9833,4.9818,4.9856,4.9852,4.9894,4.9847,4.9848,4.9849,0,4.9212,4.9262,4.9337,4.9401,4.9422,4.9459,4.9517,4.9558,4.9611,4.9633,4.9673,4.9696,4.9748,4.9741,4.9813,4.9791,4.9819,4.9842,4.9844,4.9852,4.9843,4.9867,4.9908,4.9914,4.9859,4.9858,4.9858,0,4.9212,4.9298,4.9355,4.9382,4.9458,4.9484,4.9516,4.9569,4.9603,4.9653,4.9676,4.973,4.9761,4.9803,4.9841,4.9832,4.9911,4.9906,4.9931,4.993,4.9947,4.9945,4.9994,4.9962,4.9962,4.9962,4.9962,0,4.9248,4.9293,4.9357,4.9392,4.9444,4.9486,4.9537,4.9571,4.9619,4.9662,4.969,4.973,4.9778,4.9823,4.9854,4.991,4.9923,4.9943,4.995,4.9941,4.9939,4.9961,4.9959,4.9964,4.9964,4.9963,4.9963,0,4.9257,4.9302,4.9366,4.9434,4.9452,4.9488,4.9546,4.9582,4.9616,4.967,4.9685,4.974,4.9796,4.9838,4.991,4.993,4.9991,4.9998,4.9973,4.9978,5.0001,4.9999,5.0067,5.0078,5.0037,5.0038,5.0038,0,4.9277,4.9313,4.9386,4.9417,4.9451,4.95,4.9536,4.9579,4.9615,4.968,4.9708,4.9767,4.9815,4.9903,4.9949,5.0004,5.0014,5.0034,5.0023,5.0013,5.0017,5.0015,5.002,5.0036,5.0036,5.0036,5.0036,0,4.9309,4.933,4.938,4.9439,4.9481,4.9529,4.9577,4.9601,4.9654,4.9692,4.9751,4.9789,4.9864,4.9922,4.9983,5.0016,5.0036,5.004,5.0049,5.004,5.0025,5.0036,4.9979,5.0038,5.0038,5.0038,5.0038,5.0038,4.9326,4.936,4.9418,4.9473,4.9515,4.9561,4.9598,4.9639,4.9689,4.9754,4.9777,4.9838,4.9893,4.9977,5.0012,5.006,5.006,5.0073,5.0076,5.0079,5.0079,5.0017,5.0071,5.0071,5.0071,5.0071,5.0071,0,4.936,4.94,4.9451,4.9519,4.9563,4.9579,4.9635,4.9671,4.9724,4.9774,4.9823,4.9891,4.9948,5.0,5.0059,5.0088,5.0099,5.0102,5.0101,5.0109,5.0074,5.0062,5.0093,5.0093,5.0093,5.0093,5.0093,5.0093,4.9384,4.9444,4.9472,4.9554,4.9593,4.9654,4.9685,4.9727,4.9768,4.9844,4.9892,4.9926,4.9977,5.0041,5.0095,5.0108,5.013,5.0131,5.0147,5.0114,5.0111,5.0109,5.0097,5.0135,5.0135,5.0179,5.0179,5.0179]}]]